Time,TemperatureF,DewpointF,PressureIn,WindDirection,WindDirectionDegrees,WindSpeedMPH,WindSpeedGustMPH,Humidity,HourlyPrecipIn,Conditions,Clouds,dailyrainin,SoftwareType,DateUTC
2013-06-22 11:02:00,74.0,71.0,30.11,North,0,0.0,2.0,89,0.02,,,1.06,,2013-06-22 15:02:00,
2013-06-22 11:12:00,74.0,71.0,30.11,North,0,0.0,2.0,89,0.02,,,1.06,,2013-06-22 15:12:00,
2013-06-22 11:53:00,76.0,73.0,30.11,North,3,1.0,5.0,89,0.00,,,1.06,,2013-06-22 15:53:00,
2013-06-22 12:02:00,77.0,74.0,30.11,ENE,76,1.0,5.0,89,0.00,,,1.06,,2013-06-22 16:02:00,
2013-06-22 12:12:00,77.0,74.0,30.11,ENE,76,1.0,5.0,89,0.00,,,1.06,,2013-06-22 16:12:00,
2013-06-22 12:22:00,77.0,74.0,30.11,ENE,76,1.0,5.0,89,0.00,,,1.06,,2013-06-22 16:22:00,
2013-06-22 12:34:00,79.0,75.0,30.11,WSW,255,1.0,12.0,88,0.00,,,1.06,,2013-06-22 16:34:00,
2013-06-22 12:43:00,79.0,74.0,30.11,East,98,2.0,8.0,84,0.00,,,1.06,,2013-06-22 16:43:00,
2013-06-22 12:52:00,79.0,74.0,30.11,East,98,2.0,8.0,84,0.00,,,1.06,,2013-06-22 16:52:00,
2013-06-22 13:02:00,79.0,74.0,30.11,East,98,2.0,8.0,84,0.00,,,1.06,,2013-06-22 17:02:00,
2013-06-22 13:22:00,77.0,72.0,30.12,North,0,0.0,2.0,84,0.07,,,1.13,,2013-06-22 17:22:00,
2013-06-22 13:43:00,79.0,74.0,30.13,North,10,1.0,5.0,86,0.07,,,1.13,,2013-06-22 17:43:00,
2013-06-22 13:52:00,79.0,74.0,30.13,North,10,1.0,5.0,86,0.07,,,1.13,,2013-06-22 17:52:00,
2013-06-22 14:02:00,79.0,74.0,30.13,WNW,297,2.0,5.0,84,0.03,,,1.13,,2013-06-22 18:02:00,
2013-06-22 14:12:00,79.0,74.0,30.13,WNW,297,2.0,5.0,84,0.03,,,1.13,,2013-06-22 18:12:00,
2013-06-22 14:23:00,79.0,73.0,30.13,SW,233,2.0,6.0,83,0.00,,,1.13,,2013-06-22 18:23:00,
2013-06-22 14:34:00,79.0,73.0,30.12,WSW,244,2.0,14.0,82,0.00,,,1.13,,2013-06-22 18:34:00,
2013-06-22 14:43:00,79.0,73.0,30.12,South,179,2.0,10.0,82,0.00,,,1.13,,2013-06-22 18:43:00,
2013-06-22 14:52:00,80.0,73.0,30.12,WNW,297,2.0,5.0,80,0.00,,,1.13,,2013-06-22 18:52:00,
2013-06-22 15:01:00,80.0,73.0,30.12,WNW,297,2.0,5.0,80,0.00,,,1.13,,2013-06-22 19:01:00,
2013-06-22 15:11:00,80.0,73.0,30.12,WNW,297,2.0,5.0,80,0.00,,,1.13,,2013-06-22 19:11:00,
2013-06-22 15:22:00,80.0,73.0,30.12,WNW,297,2.0,5.0,80,0.00,,,1.13,,2013-06-22 19:22:00,
2013-06-22 15:33:00,80.0,72.0,30.11,SW,228,1.0,14.0,78,0.00,,,1.13,,2013-06-22 19:33:00,
2013-06-22 15:53:00,79.0,72.0,30.11,SW,229,1.0,1.0,79,0.00,,,1.13,,2013-06-22 19:53:00,
2013-06-22 16:02:00,80.0,73.0,30.11,SSW,201,1.0,5.0,79,0.00,,,1.13,,2013-06-22 20:02:00,
2013-06-22 16:11:00,80.0,73.0,30.11,SSW,201,1.0,5.0,79,0.00,,,1.13,,2013-06-22 20:11:00,
2013-06-22 16:22:00,81.0,73.0,30.11,West,270,1.0,6.0,76,0.00,,,1.13,,2013-06-22 20:22:00,
2013-06-22 16:34:00,81.0,73.0,30.11,West,270,1.0,6.0,76,0.00,,,1.13,,2013-06-22 20:34:00,
2013-06-22 16:43:00,82.0,73.0,30.12,SSW,193,1.0,1.0,75,0.00,,,1.13,,2013-06-22 20:43:00,
2013-06-22 16:53:00,82.0,73.0,30.12,North,0,0.0,2.0,74,0.00,,,1.13,,2013-06-22 20:53:00,
2013-06-22 17:01:00,82.0,73.0,30.11,North,0,0.0,0.0,75,0.00,,,1.13,,2013-06-22 21:01:00,
2013-06-22 17:11:00,82.0,73.0,30.11,North,0,0.0,0.0,75,0.00,,,1.13,,2013-06-22 21:11:00,
2013-06-22 17:22:00,82.0,72.0,30.11,North,0,0.0,4.0,73,0.00,,,1.13,,2013-06-22 21:22:00,
2013-06-22 17:34:00,82.0,72.0,30.11,North,0,0.0,4.0,73,0.00,,,1.13,,2013-06-22 21:34:00,
2013-06-22 17:43:00,82.0,72.0,30.11,North,0,0.0,4.0,73,0.00,,,1.13,,2013-06-22 21:43:00,
2013-06-22 17:53:00,81.0,72.0,30.11,North,0,0.0,1.0,75,0.00,,,1.13,,2013-06-22 21:53:00,
2013-06-22 18:02:00,81.0,72.0,30.11,North,0,0.0,1.0,74,0.00,,,1.13,,2013-06-22 22:02:00,
2013-06-22 18:12:00,81.0,72.0,30.11,North,0,0.0,4.0,74,0.00,,,1.13,,2013-06-22 22:12:00,
2013-06-22 18:23:00,80.0,71.0,30.11,West,281,1.0,1.0,74,0.00,,,1.13,,2013-06-22 22:23:00,
2013-06-22 18:33:00,80.0,72.0,30.11,North,0,0.0,7.0,76,0.00,,,1.13,,2013-06-22 22:33:00,
2013-06-22 18:43:00,80.0,72.0,30.11,North,0,0.0,7.0,76,0.00,,,1.13,,2013-06-22 22:43:00,
2013-06-22 18:52:00,80.0,72.0,30.11,North,0,0.0,7.0,76,0.00,,,1.13,,2013-06-22 22:52:00,
2013-06-22 19:01:00,80.0,72.0,30.11,North,0,0.0,7.0,76,0.00,,,1.13,,2013-06-22 23:01:00,
2013-06-22 19:11:00,80.0,72.0,30.11,North,0,0.0,7.0,76,0.00,,,1.13,,2013-06-22 23:11:00,
2013-06-22 19:34:00,81.0,73.0,30.11,WSW,244,1.0,5.0,76,0.00,,,1.13,,2013-06-22 23:34:00,
2013-06-22 19:43:00,81.0,73.0,30.11,WSW,244,1.0,5.0,76,0.00,,,1.13,,2013-06-22 23:43:00,
2013-06-22 19:53:00,81.0,73.0,30.11,WSW,244,1.0,5.0,76,0.00,,,1.13,,2013-06-22 23:53:00,
2013-06-22 20:01:00,79.0,72.0,30.10,North,0,0.0,1.0,78,0.00,,,1.13,,2013-06-23 00:01:00,
2013-06-22 20:11:00,79.0,72.0,30.10,North,0,0.0,1.0,78,0.00,,,1.13,,2013-06-23 00:11:00,
2013-06-22 20:34:00,78.0,71.0,30.10,North,0,0.0,0.0,80,0.00,,,1.13,,2013-06-23 00:34:00,
2013-06-22 20:42:00,78.0,71.0,30.10,North,0,0.0,0.0,80,0.00,,,1.13,,2013-06-23 00:42:00,
2013-06-22 20:53:00,78.0,72.0,30.11,North,0,0.0,0.0,81,0.00,,,1.13,,2013-06-23 00:53:00,
2013-06-22 21:01:00,77.0,71.0,30.11,North,0,0.0,1.0,81,0.00,,,1.13,,2013-06-23 01:01:00,
2013-06-22 21:12:00,77.0,71.0,30.11,North,0,0.0,1.0,81,0.00,,,1.13,,2013-06-23 01:12:00,
2013-06-22 21:22:00,77.0,71.0,30.11,North,0,0.0,1.0,81,0.00,,,1.13,,2013-06-23 01:22:00,
2013-06-22 21:32:00,77.0,71.0,30.11,North,0,0.0,1.0,81,0.00,,,1.13,,2013-06-23 01:32:00,
2013-06-22 21:42:00,77.0,71.0,30.11,North,0,0.0,1.0,81,0.00,,,1.13,,2013-06-23 01:42:00,
2013-06-22 23:21:00,76.0,70.0,30.12,North,0,0.0,0.0,83,0.00,,,1.13,,2013-06-23 03:21:00,
2013-06-22 23:31:00,76.0,70.0,30.12,North,0,0.0,0.0,83,0.00,,,1.13,,2013-06-23 03:31:00,
2013-06-22 23:41:00,76.0,70.0,30.12,North,0,0.0,0.0,83,0.00,,,1.13,,2013-06-23 03:41:00,
2013-06-22 23:52:00,76.0,70.0,30.12,North,0,0.0,0.0,83,0.00,,,1.13,,2013-06-23 03:52:00,